| time (UTC) | temp F | wind direction | speed MPH | gust MPH | rain 1hr in | rain 24hr in | rain mn in | humidity % | barometer mb |
| 20260901013034 | 74 | 308 | 2.0 | 6.0 | 0.00 | 0.00 | 0.00 | 77 | 1011.0 |
| 20260901012525 | 74 | 255 | 0.0 | 7.0 | 0.00 | 0.00 | 0.00 | 78 | 1010.9 |
| 20260901012257 | 74 | 261 | 2.0 | 8.0 | 0.00 | 0.00 | 0.00 | 77 | 1011.0 |
| 20260901011524 | 74 | 270 | 1.0 | 8.0 | 0.00 | 0.00 | 0.00 | 77 | 1011.0 |
| 20260901011246 | 74 | 289 | 2.0 | 7.0 | 0.00 | 0.00 | 0.00 | 76 | 1011.0 |
| 20260901010530 | 74 | 309 | 2.0 | 8.0 | 0.00 | 0.00 | 0.00 | 76 | 1011.0 |
| 20260901010025 | 74 | 273 | 3.0 | 10.0 | 0.00 | 0.00 | 0.00 | 76 | 1011.1 |
| 20260901005745 | 74 | 277 | 4.0 | 10.0 | 0.00 | 0.00 | 0.00 | 77 | 1011.1 |
| 20260901005024 | 74 | 350 | 5.0 | 9.0 | 0.00 | 0.00 | 0.00 | 78 | 1011.1 |
| 20260901004742 | 74 | 21 | 4.0 | 8.0 | 0.00 | 0.00 | 0.00 | 77 | 1011.1 |
| 20260901004024 | 75 | 261 | 1.0 | 8.0 | 0.00 | 0.00 | 0.00 | 77 | 1011.1 |
| 20260901003522 | 75 | 262 | 3.0 | 8.0 | 0.00 | 0.00 | 0.00 | 77 | 1011.1 |
| 20260901003022 | 75 | 309 | 3.0 | 8.0 | 0.00 | 0.00 | 0.00 | 76 | 1011.1 |
| 20260901002526 | 75 | 27 | 3.0 | 8.0 | 0.00 | 0.00 | 0.00 | 77 | 1011.1 |
| 20260901002023 | 75 | 272 | 2.0 | 8.0 | 0.00 | 0.00 | 0.00 | 76 | 1011.1 |
| 20260901001523 | 75 | 262 | 4.0 | 8.0 | 0.00 | 0.00 | 0.00 | 75 | 1011.1 |
| 20260901001022 | 75 | 342 | 5.0 | 8.0 | 0.00 | 0.00 | 0.00 | 73 | 1011.2 |
| 20260901000522 | 75 | 216 | 5.0 | 8.0 | 0.00 | 0.00 | 0.00 | 75 | 1011.2 |
| 20260901000023 | 75 | 295 | 2.0 | 8.0 | 0.00 | 0.00 | 0.00 | 75 | 1011.2 |
| 20260831235522 | 75 | 335 | 2.0 | 9.0 | 0.00 | 0.00 | 0.00 | 75 | 1011.2 |
| 20260831235021 | 75 | 11 | 3.0 | 9.0 | 0.00 | 0.00 | 0.00 | 74 | 1011.3 |
| 20260831234522 | 76 | 297 | 4.0 | 8.0 | 0.00 | 0.00 | 0.00 | 75 | 1011.3 |
| 20260831234023 | 76 | 319 | 4.0 | 8.0 | 0.00 | 0.00 | 0.00 | 73 | 1011.4 |
| 20260831233522 | 76 | 339 | 3.0 | 8.0 | 0.00 | 0.00 | 0.00 | 74 | 1011.3 |
| 20260831233023 | 76 | 301 | 3.0 | 8.0 | 0.00 | 0.00 | 0.00 | 74 | 1011.3 |
| 20260831232521 | 76 | 259 | 3.0 | 9.0 | 0.00 | 0.00 | 0.00 | 73 | 1011.4 |
| 20260831232023 | 76 | 318 | 7.0 | 9.0 | 0.00 | 0.00 | 0.00 | 72 | 1011.4 |
| 20260831231522 | 76 | 278 | 3.0 | 9.0 | 0.00 | 0.00 | 0.00 | 71 | 1011.4 |
| 20260831231245 | 75 | 326 | 5.0 | 9.0 | 0.00 | 0.00 | 0.00 | 72 | 1011.5 |
| 20260831230521 | 75 | 232 | 3.0 | 10.0 | 0.00 | 0.00 | 0.00 | 72 | 1011.5 |
| 20260831230251 | 75 | 320 | 3.0 | 13.0 | 0.00 | 0.00 | 0.00 | 73 | 1011.6 |
| 20260831225522 | 75 | 341 | 3.0 | 13.0 | 0.00 | 0.00 | 0.00 | 74 | 1011.5 |
| 20260831225021 | 75 | 272 | 4.0 | 12.0 | 0.00 | 0.00 | 0.00 | 74 | 1011.5 |
| 20260831224521 | 75 | 348 | 4.0 | 12.0 | 0.00 | 0.00 | 0.00 | 74 | 1011.7 |
| 20260831224022 | 76 | 335 | 10.0 | 10.0 | 0.00 | 0.00 | 0.00 | 76 | 1011.7 |
| 20260831223521 | 76 | 315 | 6.0 | 9.0 | 0.00 | 0.00 | 0.00 | 73 | 1011.8 |
| 20260831223243 | 76 | 322 | 2.0 | 9.0 | 0.00 | 0.00 | 0.00 | 73 | 1011.8 |
| 20260831222520 | 76 | 241 | 5.0 | 14.0 | 0.00 | 0.00 | 0.00 | 74 | 1011.9 |
| 20260831222021 | 76 | 343 | 4.0 | 14.0 | 0.00 | 0.00 | 0.00 | 74 | 1012.0 |
| 20260831221521 | 75 | 272 | 5.0 | 8.0 | 0.00 | 0.00 | 0.00 | 73 | 1012.1 |
| 20260831221025 | 75 | 351 | 4.0 | 12.0 | 0.00 | 0.00 | 0.00 | 74 | 1012.1 |
| 20260831220520 | 76 | 331 | 5.0 | 12.0 | 0.00 | 0.00 | 0.00 | 75 | 1012.1 |
| 20260831220026 | 76 | 22 | 2.0 | 12.0 | 0.00 | 0.00 | 0.00 | 75 | 1012.1 |
| 20260831215520 | 76 | 298 | 3.0 | 12.0 | 0.00 | 0.00 | 0.00 | 75 | 1012.1 |
| 20260831215241 | 75 | 260 | 4.0 | 12.0 | 0.00 | 0.00 | 0.00 | 73 | 1012.1 |
| 20260831214519 | 76 | 297 | 7.0 | 12.0 | 0.00 | 0.00 | 0.00 | 76 | 1012.1 |
| 20260831214020 | 76 | 238 | 5.0 | 13.0 | 0.00 | 0.00 | 0.00 | 74 | 1012.0 |
| 20260831213524 | 76 | 286 | 3.0 | 14.0 | 0.00 | 0.00 | 0.00 | 74 | 1012.0 |
| 20260831213018 | 76 | 345 | 10.0 | 14.0 | 0.00 | 0.00 | 0.00 | 75 | 1012.1 |
| 20260831212518 | 76 | 261 | 3.0 | 14.0 | 0.00 | 0.00 | 0.00 | 74 | 1012.2 |
| 20260831212019 | 76 | 291 | 3.0 | 14.0 | 0.00 | 0.00 | 0.00 | 75 | 1012.1 |
| 20260831211520 | 76 | 250 | 4.0 | 12.0 | 0.00 | 0.00 | 0.00 | 74 | 1012.2 |
| 20260831211249 | 76 | 259 | 3.0 | 10.0 | 0.00 | 0.00 | 0.00 | 73 | 1012.2 |
| 20260831210518 | 76 | 10 | 5.0 | 13.0 | 0.00 | 0.00 | 0.00 | 74 | 1012.2 |
| 20260831210018 | 76 | 10 | 5.0 | 13.0 | 0.00 | 0.00 | 0.00 | 74 | 1012.3 |
| 20260831205518 | 76 | 337 | 10.0 | 14.0 | 0.00 | 0.00 | 0.00 | 72 | 1012.2 |
| 20260831205018 | 76 | 273 | 6.0 | 15.0 | 0.00 | 0.00 | 0.00 | 72 | 1012.3 |
| 20260831204519 | 76 | 266 | 9.0 | 15.0 | 0.00 | 0.00 | 0.00 | 72 | 1012.5 |
| 20260831204022 | 76 | 244 | 2.0 | 16.0 | 0.00 | 0.00 | 0.00 | 73 | 1012.4 |
| 20260831203518 | 76 | 332 | 6.0 | 16.0 | 0.00 | 0.00 | 0.00 | 75 | 1012.5 |
| 20260831203236 | 76 | 316 | 10.0 | 12.0 | 0.00 | 0.00 | 0.00 | 72 | 1012.5 |
| 20260831202517 | 76 | 323 | 3.0 | 12.0 | 0.00 | 0.00 | 0.00 | 74 | 1012.4 |
| 20260831201518 | 76 | 241 | 3.0 | 12.0 | 0.00 | 0.00 | 0.00 | 73 | 1012.5 |
| 20260831201019 | 76 | 282 | 4.0 | 12.0 | 0.00 | 0.00 | 0.00 | 74 | 1012.4 |
| 20260831200522 | 76 | 273 | 4.0 | 10.0 | 0.00 | 0.00 | 0.00 | 75 | 1012.4 |
| 20260831200016 | 76 | 285 | 5.0 | 14.0 | 0.00 | 0.00 | 0.00 | 73 | 1012.6 |
| 20260831195739 | 76 | 1 | 6.0 | 14.0 | 0.00 | 0.00 | 0.00 | 74 | 1012.6 |
| 20260831195018 | 76 | 318 | 4.0 | 10.0 | 0.00 | 0.00 | 0.00 | 73 | 1012.6 |
| 20260831194517 | 76 | 351 | 9.0 | 12.0 | 0.00 | 0.00 | 0.00 | 73 | 1012.6 |
| 20260831194021 | 76 | 266 | 4.0 | 13.0 | 0.00 | 0.00 | 0.00 | 74 | 1012.6 |
| 20260831193518 | 76 | 338 | 2.0 | 13.0 | 0.00 | 0.00 | 0.00 | 73 | 1012.6 |
| 20260831193023 | 76 | 344 | 4.0 | 9.0 | 0.00 | 0.00 | 0.00 | 73 | 1012.6 |
| 20260831192516 | 76 | 298 | 5.0 | 13.0 | 0.00 | 0.00 | 0.00 | 72 | 1012.5 |
| 20260831192016 | 76 | 350 | 8.0 | 13.0 | 0.00 | 0.00 | 0.00 | 73 | 1012.6 |
| 20260831191517 | 77 | 336 | 10.0 | 14.0 | 0.00 | 0.00 | 0.00 | 72 | 1012.6 |
| 20260831191016 | 77 | 320 | 5.0 | 15.0 | 0.00 | 0.00 | 0.00 | 73 | 1012.7 |
| 20260831190515 | 77 | 312 | 10.0 | 15.0 | 0.00 | 0.00 | 0.00 | 73 | 1012.8 |
| 20260831190015 | 77 | 310 | 10.0 | 10.0 | 0.00 | 0.00 | 0.00 | 73 | 1012.7 |
| 20260831185516 | 77 | 279 | 4.0 | 12.0 | 0.00 | 0.00 | 0.00 | 71 | 1012.6 |
| 20260831185017 | 77 | 191 | 2.0 | 12.0 | 0.00 | 0.00 | 0.00 | 72 | 1012.7 |
| 20260831184515 | 77 | 296 | 3.0 | 10.0 | 0.00 | 0.00 | 0.00 | 71 | 1012.7 |
| 20260831184014 | 77 | 355 | 4.0 | 10.0 | 0.00 | 0.00 | 0.00 | 71 | 1012.6 |
| 20260831183235 | 77 | 257 | 4.0 | 10.0 | 0.00 | 0.00 | 0.00 | 69 | 1012.7 |
| 20260831182519 | 77 | 307 | 7.0 | 8.0 | 0.00 | 0.00 | 0.00 | 70 | 1012.7 |
| 20260831182015 | 77 | 233 | 2.0 | 12.0 | 0.00 | 0.00 | 0.00 | 71 | 1012.7 |
| 20260831181015 | 76 | 307 | 3.0 | 7.0 | 0.00 | 0.00 | 0.00 | 71 | 1012.6 |
| 20260831180515 | 76 | 246 | 4.0 | 8.0 | 0.00 | 0.00 | 0.00 | 70 | 1012.6 |
| 20260831180019 | 76 | 324 | 5.0 | 8.0 | 0.00 | 0.00 | 0.00 | 71 | 1012.7 |
| 20260831175514 | 76 | 290 | 1.0 | 7.0 | 0.00 | 0.00 | 0.00 | 71 | 1012.7 |
| 20260831175016 | 76 | 349 | 2.0 | 9.0 | 0.00 | 0.00 | 0.00 | 71 | 1012.6 |
| 20260831174515 | 76 | 332 | 5.0 | 9.0 | 0.00 | 0.00 | 0.00 | 72 | 1012.4 |
| 20260831174013 | 75 | 249 | 5.0 | 9.0 | 0.00 | 0.00 | 0.00 | 73 | 1012.4 |
| 20260831173513 | 75 | 309 | 4.0 | 9.0 | 0.00 | 0.00 | 0.00 | 73 | 1012.4 |
| 20260831173014 | 75 | 348 | 6.0 | 10.0 | 0.00 | 0.00 | 0.00 | 74 | 1012.5 |
| 20260831172515 | 75 | 299 | 4.0 | 12.0 | 0.00 | 0.00 | 0.00 | 74 | 1012.4 |
| 20260831172014 | 75 | 331 | 4.0 | 12.0 | 0.00 | 0.00 | 0.00 | 74 | 1012.5 |
| 20260831171513 | 75 | 319 | 7.0 | 12.0 | 0.00 | 0.00 | 0.00 | 75 | 1012.4 |
| 20260831171014 | 76 | 326 | 5.0 | 12.0 | 0.00 | 0.00 | 0.00 | 75 | 1012.4 |
| 20260831170514 | 76 | 302 | 3.0 | 10.0 | 0.00 | 0.00 | 0.00 | 74 | 1012.3 |
| 20260831170012 | 76 | 335 | 6.0 | 10.0 | 0.00 | 0.00 | 0.00 | 75 | 1012.3 |
| 20260831165513 | 76 | 253 | 5.0 | 7.0 | 0.00 | 0.00 | 0.00 | 74 | 1012.3 |
| 20260831165013 | 76 | 274 | 2.0 | 8.0 | 0.00 | 0.00 | 0.00 | 72 | 1012.2 |
| 20260831164514 | 76 | 294 | 4.0 | 10.0 | 0.00 | 0.00 | 0.00 | 73 | 1012.2 |
| 20260831164012 | 76 | 316 | 4.0 | 10.0 | 0.00 | 0.00 | 0.00 | 73 | 1012.1 |
| 20260831163512 | 75 | 327 | 3.0 | 10.0 | 0.00 | 0.00 | 0.00 | 73 | 1012.2 |
| 20260831163013 | 75 | 350 | 5.0 | 10.0 | 0.00 | 0.00 | 0.00 | 74 | 1012.2 |
| 20260831162513 | 75 | 8 | 3.0 | 8.0 | 0.00 | 0.00 | 0.00 | 72 | 1012.1 |
| 20260831162011 | 75 | 327 | 6.0 | 8.0 | 0.00 | 0.00 | 0.00 | 73 | 1012.1 |
| 20260831161732 | 74 | 300 | 3.0 | 6.0 | 0.00 | 0.00 | 0.00 | 74 | 1012.1 |
| 20260831161012 | 74 | 314 | 1.0 | 6.0 | 0.00 | 0.00 | 0.00 | 74 | 1012.1 |
| 20260831160513 | 74 | 308 | 2.0 | 6.0 | 0.00 | 0.00 | 0.00 | 75 | 1012.2 |
| 20260831160011 | 74 | 266 | 2.0 | 6.0 | 0.00 | 0.00 | 0.00 | 76 | 1012.2 |
| 20260831155511 | 74 | 310 | 3.0 | 6.0 | 0.00 | 0.00 | 0.00 | 76 | 1012.2 |
| 20260831155011 | 74 | 309 | 1.0 | 6.0 | 0.00 | 0.00 | 0.00 | 78 | 1012.2 |
| 20260831154512 | 74 | 310 | 2.0 | 6.0 | 0.00 | 0.00 | 0.00 | 77 | 1012.2 |
| 20260831154011 | 74 | 311 | 2.0 | 5.0 | 0.00 | 0.00 | 0.00 | 77 | 1012.2 |
| 20260831153510 | 73 | 311 | 1.0 | 5.0 | 0.00 | 0.00 | 0.00 | 77 | 1012.1 |
| 20260831153011 | 73 | 312 | 2.0 | 3.0 | 0.00 | 0.00 | 0.00 | 77 | 1012.2 |
| 20260831152511 | 73 | 312 | 2.0 | 3.0 | 0.00 | 0.00 | 0.00 | 77 | 1012.1 |
| 20260831152011 | 73 | 312 | 0.0 | 3.0 | 0.00 | 0.00 | 0.00 | 79 | 1012.0 |
| 20260831151510 | 73 | 315 | 0.0 | 2.0 | 0.00 | 0.00 | 0.00 | 77 | 1011.9 |
| 20260831151010 | 72 | 265 | 1.0 | 3.0 | 0.00 | 0.00 | 0.00 | 79 | 1012.0 |
| 20260831150511 | 72 | 230 | 1.0 | 3.0 | 0.00 | 0.00 | 0.00 | 78 | 1011.9 |
| 20260831150230 | 71 | 267 | 0.0 | 2.0 | 0.00 | 0.00 | 0.00 | 78 | 1011.9 |
| 20260831145510 | 71 | 260 | 0.0 | 2.0 | 0.00 | 0.00 | 0.00 | 80 | 1011.9 |
| 20260831145009 | 71 | 252 | 0.0 | 2.0 | 0.00 | 0.00 | 0.00 | 81 | 1011.9 |
| 20260831144731 | 70 | 255 | 1.0 | 2.0 | 0.00 | 0.00 | 0.00 | 81 | 1011.9 |
| 20260831144011 | 70 | 259 | 0.0 | 3.0 | 0.00 | 0.00 | 0.00 | 82 | 1011.8 |
| 20260831143009 | 69 | 248 | 0.0 | 0.0 | 0.00 | 0.00 | 0.00 | 83 | 1011.8 |
| 20260831142731 | 69 | 259 | 0.0 | 0.0 | 0.00 | 0.00 | 0.00 | 83 | 1011.8 |
| 20260831142010 | 69 | 250 | 0.0 | 0.0 | 0.00 | 0.00 | 0.00 | 84 | 1011.7 |
| 20260831141509 | 69 | 250 | 0.0 | 0.0 | 0.00 | 0.00 | 0.00 | 85 | 1011.7 |
| 20260831141009 | 69 | 254 | 0.0 | 0.0 | 0.00 | 0.00 | 0.00 | 85 | 1011.6 |
| 20260831140510 | 69 | 252 | 0.0 | 0.0 | 0.00 | 0.00 | 0.00 | 85 | 1011.5 |
| 20260831140230 | 69 | 250 | 0.0 | 0.0 | 0.00 | 0.00 | 0.00 | 85 | 1011.5 |
| 20260831135508 | 69 | 248 | 0.0 | 0.0 | 0.00 | 0.00 | 0.00 | 85 | 1011.4 |
| 20260831135008 | 69 | 249 | 0.0 | 0.0 | 0.00 | 0.00 | 0.00 | 85 | 1011.2 |
| 20260831134509 | 69 | 255 | 0.0 | 3.0 | 0.00 | 0.00 | 0.00 | 85 | 1011.2 |
| 20260831134234 | 69 | 268 | 0.0 | 3.0 | 0.00 | 0.00 | 0.00 | 85 | 1011.1 |
| 20260831133008 | 69 | 256 | 0.0 | 2.0 | 0.00 | 0.00 | 0.00 | 85 | 1011.0 |
| 20260831132509 | 69 | 258 | 0.0 | 3.0 | 0.00 | 0.00 | 0.00 | 85 | 1011.0 |
| 20260831132008 | 69 | 264 | 0.0 | 3.0 | 0.00 | 0.00 | 0.00 | 85 | 1010.9 |
| 20260831131508 | 69 | 257 | 0.0 | 3.0 | 0.00 | 0.00 | 0.00 | 85 | 1011.0 |
| 20260831131007 | 69 | 285 | 2.0 | 5.0 | 0.00 | 0.00 | 0.00 | 85 | 1011.0 |
| 20260831130508 | 69 | 276 | 1.0 | 5.0 | 0.00 | 0.00 | 0.00 | 85 | 1011.0 |
| 20260831130008 | 69 | 294 | 0.0 | 3.0 | 0.00 | 0.00 | 0.00 | 85 | 1010.9 |
| 20260831125507 | 69 | 290 | 0.0 | 0.0 | 0.00 | 0.00 | 0.00 | 85 | 1010.9 |
| 20260831125007 | 69 | 254 | 0.0 | 0.0 | 0.00 | 0.00 | 0.00 | 86 | 1010.9 |
| 20260831124727 | 69 | 251 | 0.0 | 0.0 | 0.00 | 0.00 | 0.00 | 85 | 1010.9 |
| 20260831124008 | 69 | 245 | 0.0 | 0.0 | 0.00 | 0.00 | 0.00 | 85 | 1010.9 |
| 20260831123507 | 69 | 260 | 0.0 | 0.0 | 0.00 | 0.00 | 0.00 | 85 | 1010.8 |
| 20260831123007 | 69 | 255 | 0.0 | 3.0 | 0.00 | 0.00 | 0.00 | 85 | 1010.8 |
| 20260831122506 | 69 | 257 | 1.0 | 3.0 | 0.00 | 0.00 | 0.00 | 85 | 1010.8 |
| 20260831122007 | 69 | 252 | 1.0 | 5.0 | 0.00 | 0.00 | 0.00 | 85 | 1010.8 |
| 20260831121508 | 69 | 278 | 2.0 | 6.0 | 0.00 | 0.00 | 0.00 | 85 | 1010.8 |
| 20260831121006 | 69 | 291 | 3.0 | 6.0 | 0.00 | 0.00 | 0.00 | 85 | 1010.8 |
| 20260831120727 | 69 | 298 | 5.0 | 6.0 | 0.00 | 0.00 | 0.00 | 85 | 1010.8 |
| 20260831120230 | 69 | 332 | 3.0 | 7.0 | 0.00 | 0.00 | 0.00 | 85 | 1010.8 |
| 20260831115506 | 69 | 290 | 4.0 | 7.0 | 0.00 | 0.00 | 0.00 | 85 | 1010.9 |
| 20260831115006 | 69 | 339 | 3.0 | 5.0 | 0.00 | 0.00 | 0.00 | 86 | 1010.8 |
| 20260831114722 | 69 | 289 | 0.0 | 2.0 | 0.00 | 0.00 | 0.00 | 86 | 1010.8 |
| 20260831114006 | 69 | 263 | 0.0 | 2.0 | 0.00 | 0.00 | 0.00 | 86 | 1010.8 |
| 20260831113507 | 69 | 265 | 0.0 | 3.0 | 0.00 | 0.00 | 0.00 | 86 | 1010.7 |
| 20260831113006 | 69 | 223 | 1.0 | 5.0 | 0.00 | 0.00 | 0.00 | 85 | 1010.8 |
| 20260831112505 | 70 | 259 | 2.0 | 5.0 | 0.00 | 0.00 | 0.00 | 85 | 1010.8 |
| 20260831112006 | 70 | 256 | 0.0 | 5.0 | 0.00 | 0.00 | 0.00 | 86 | 1010.7 |
| 20260831111508 | 70 | 262 | 1.0 | 5.0 | 0.00 | 0.00 | 0.00 | 86 | 1010.8 |
| 20260831111005 | 70 | 254 | 1.0 | 3.0 | 0.00 | 0.00 | 0.00 | 86 | 1010.8 |
| 20260831110505 | 70 | 278 | 1.0 | 5.0 | 0.00 | 0.00 | 0.00 | 86 | 1010.8 |
| 20260831110228 | 70 | 259 | 0.0 | 5.0 | 0.00 | 0.00 | 0.00 | 86 | 1010.9 |
| 20260831105505 | 70 | 266 | 3.0 | 3.0 | 0.00 | 0.00 | 0.00 | 86 | 1010.8 |
| 20260831105005 | 70 | 262 | 0.0 | 2.0 | 0.00 | 0.00 | 0.00 | 85 | 1010.8 |
| 20260831104506 | 70 | 256 | 0.0 | 3.0 | 0.00 | 0.00 | 0.00 | 85 | 1010.8 |
| 20260831104005 | 70 | 239 | 1.0 | 3.0 | 0.00 | 0.00 | 0.00 | 85 | 1010.9 |
| 20260831103504 | 70 | 240 | 1.0 | 2.0 | 0.00 | 0.00 | 0.00 | 85 | 1011.0 |
| 20260831103227 | 70 | 253 | 1.0 | 2.0 | 0.00 | 0.00 | 0.00 | 86 | 1010.9 |
| 20260831102503 | 70 | 250 | 1.0 | 2.0 | 0.00 | 0.00 | 0.00 | 86 | 1011.0 |
| 20260831102005 | 70 | 252 | 1.0 | 5.0 | 0.00 | 0.00 | 0.00 | 86 | 1010.9 |
| 20260831101507 | 70 | 244 | 2.0 | 5.0 | 0.00 | 0.00 | 0.00 | 86 | 1010.9 |
| 20260831101004 | 70 | 251 | 0.0 | 3.0 | 0.00 | 0.00 | 0.00 | 86 | 1010.9 |
| 20260831100726 | 70 | 282 | 2.0 | 3.0 | 0.00 | 0.00 | 0.00 | 86 | 1010.9 |
| 20260831095722 | 70 | 266 | 0.0 | 2.0 | 0.00 | 0.00 | 0.00 | 86 | 1010.9 |
| 20260831095222 | 70 | 258 | 0.0 | 3.0 | 0.00 | 0.00 | 0.00 | 86 | 1010.9 |
| 20260831094723 | 70 | 273 | 1.0 | 3.0 | 0.00 | 0.00 | 0.00 | 86 | 1011.0 |
| 20260831094222 | 70 | 272 | 2.0 | 5.0 | 0.00 | 0.00 | 0.00 | 86 | 1010.9 |
| 20260831093221 | 70 | 256 | 2.0 | 3.0 | 0.00 | 0.00 | 0.00 | 87 | 1011.0 |
| 20260831092723 | 70 | 254 | 1.0 | 3.0 | 0.00 | 0.00 | 0.00 | 87 | 1010.9 |
| 20260831092222 | 70 | 257 | 0.0 | 3.0 | 0.00 | 0.00 | 0.00 | 87 | 1010.8 |
| 20260831091720 | 70 | 248 | 1.0 | 5.0 | 0.00 | 0.00 | 0.00 | 87 | 1010.9 |
| 20260831091222 | 70 | 257 | 1.0 | 5.0 | 0.00 | 0.00 | 0.00 | 87 | 1010.8 |
| 20260831090943 | 71 | 303 | 2.0 | 5.0 | 0.00 | 0.00 | 0.00 | 87 | 1010.9 |
| 20260831090443 | 71 | 264 | 1.0 | 5.0 | 0.00 | 0.00 | 0.00 | 87 | 1010.9 |
| 20260831085721 | 71 | 266 | 1.0 | 3.0 | 0.00 | 0.00 | 0.00 | 87 | 1010.9 |
| 20260831085439 | 71 | 262 | 1.0 | 2.0 | 0.00 | 0.00 | 0.00 | 87 | 1011.0 |
| 20260831084944 | 71 | 250 | 1.0 | 3.0 | 0.00 | 0.00 | 0.00 | 87 | 1011.0 |
| 20260831084221 | 71 | 265 | 0.0 | 3.0 | 0.00 | 0.00 | 0.00 | 87 | 1011.0 |
| 20260831083720 | 71 | 260 | 1.0 | 3.0 | 0.00 | 0.00 | 0.00 | 87 | 1011.0 |
| 20260831083220 | 71 | 276 | 1.0 | 3.0 | 0.00 | 0.00 | 0.00 | 88 | 1011.0 |
| 20260831082721 | 71 | 240 | 2.0 | 2.0 | 0.00 | 0.00 | 0.00 | 87 | 1011.1 |
| 20260831082221 | 71 | 261 | 0.0 | 3.0 | 0.00 | 0.00 | 0.00 | 87 | 1011.0 |
| 20260831081944 | 71 | 257 | 0.0 | 5.0 | 0.00 | 0.00 | 0.00 | 87 | 1011.1 |
| 20260831081219 | 70 | 226 | 3.0 | 5.0 | 0.00 | 0.00 | 0.00 | 88 | 1011.1 |
| 20260831080719 | 70 | 239 | 0.0 | 2.0 | 0.00 | 0.00 | 0.00 | 89 | 1011.1 |
| 20260831080221 | 70 | 246 | 1.0 | 3.0 | 0.00 | 0.00 | 0.00 | 89 | 1011.1 |
| 20260831075719 | 70 | 251 | 1.0 | 3.0 | 0.00 | 0.00 | 0.00 | 89 | 1011.1 |
| 20260831075219 | 70 | 254 | 0.0 | 0.0 | 0.00 | 0.00 | 0.00 | 89 | 1011.2 |
| 20260831074719 | 70 | 254 | 0.0 | 0.0 | 0.00 | 0.00 | 0.00 | 89 | 1011.1 |
| 20260831074220 | 70 | 264 | 0.0 | 0.0 | 0.00 | 0.00 | 0.00 | 89 | 1011.1 |
| 20260831073719 | 70 | 253 | 0.0 | 0.0 | 0.00 | 0.00 | 0.00 | 89 | 1011.1 |
| 20260831073218 | 70 | 252 | 0.0 | 0.0 | 0.00 | 0.00 | 0.00 | 89 | 1011.2 |
| 20260831072718 | 70 | 253 | 0.0 | 0.0 | 0.00 | 0.00 | 0.00 | 89 | 1011.2 |
| 20260831072219 | 70 | 255 | 0.0 | 0.0 | 0.00 | 0.00 | 0.00 | 90 | 1011.1 |
| 20260831071720 | 70 | 264 | 0.0 | 0.0 | 0.00 | 0.00 | 0.00 | 90 | 1011.2 |
| 20260831071218 | 70 | 264 | 0.0 | 0.0 | 0.00 | 0.00 | 0.00 | 90 | 1011.2 |
| 20260831070718 | 70 | 257 | 0.0 | 0.0 | 0.00 | 0.00 | 0.00 | 90 | 1011.2 |
| 20260831070219 | 70 | 261 | 0.0 | 0.0 | 0.00 | 0.00 | 0.00 | 90 | 1011.2 |
| 20260831065945 | 70 | 258 | 0.0 | 0.0 | 0.00 | 0.00 | 0.00 | 90 | 1011.2 |
| 20260831065217 | 70 | 248 | 0.0 | 0.0 | 0.00 | 0.00 | 0.00 | 90 | 1011.2 |
| 20260831064930 | 70 | 246 | 0.0 | 0.0 | 0.00 | 0.00 | 0.00 | 90 | 1011.2 |
| 20260831064218 | 70 | 254 | 0.0 | 0.0 | 0.00 | 0.00 | 0.00 | 90 | 1011.2 |
| 20260831063718 | 70 | 254 | 0.0 | 0.0 | 0.00 | 0.00 | 0.00 | 90 | 1011.1 |
| 20260831063217 | 71 | 249 | 0.0 | 0.0 | 0.00 | 0.00 | 0.00 | 89 | 1011.2 |
| 20260831062717 | 71 | 248 | 0.0 | 0.0 | 0.00 | 0.00 | 0.00 | 89 | 1011.1 |
| 20260831062218 | 71 | 248 | 0.0 | 0.0 | 0.00 | 0.00 | 0.00 | 89 | 1011.1 |
| 20260831061938 | 71 | 251 | 0.0 | 0.0 | 0.00 | 0.00 | 0.00 | 89 | 1011.0 |
| 20260831061441 | 71 | 249 | 0.0 | 0.0 | 0.00 | 0.00 | 0.00 | 89 | 1011.1 |
| 20260831060940 | 71 | 256 | 0.0 | 0.0 | 0.00 | 0.00 | 0.00 | 89 | 1011.1 |
| 20260831060217 | 71 | 254 | 0.0 | 0.0 | 0.00 | 0.00 | 0.00 | 89 | 1011.1 |
| 20260831055216 | 71 | 241 | 0.0 | 3.0 | 0.00 | 0.00 | 0.00 | 89 | 1011.1 |
| 20260831054935 | 71 | 279 | 2.0 | 5.0 | 0.00 | 0.00 | 0.00 | 89 | 1011.1 |
| 20260831054218 | 71 | 262 | 1.0 | 5.0 | 0.00 | 0.00 | 0.00 | 89 | 1011.0 |
| 20260831053717 | 71 | 309 | 2.0 | 5.0 | 0.00 | 0.00 | 0.00 | 89 | 1011.1 |
| 20260831053216 | 71 | 279 | 1.0 | 5.0 | 0.00 | 0.00 | 0.00 | 89 | 1011.1 |
| 20260831052715 | 71 | 263 | 1.0 | 5.0 | 0.00 | 0.00 | 0.00 | 89 | 1011.0 |
| 20260831052216 | 71 | 282 | 0.0 | 5.0 | 0.00 | 0.00 | 0.00 | 89 | 1010.9 |
| 20260831051717 | 71 | 272 | 2.0 | 5.0 | 0.00 | 0.00 | 0.00 | 89 | 1010.9 |
| 20260831051216 | 71 | 274 | 2.0 | 6.0 | 0.00 | 0.00 | 0.00 | 89 | 1010.8 |
| 20260831050716 | 71 | 270 | 3.0 | 6.0 | 0.00 | 0.00 | 0.00 | 89 | 1010.8 |
| 20260831050214 | 71 | 247 | 0.0 | 5.0 | 0.00 | 0.00 | 0.00 | 89 | 1010.9 |
| 20260831045716 | 71 | 265 | 1.0 | 5.0 | 0.00 | 0.00 | 0.00 | 88 | 1011.0 |
| 20260831045215 | 71 | 272 | 2.0 | 5.0 | 0.00 | 0.00 | 0.00 | 88 | 1011.0 |
| 20260831044715 | 71 | 276 | 1.0 | 3.0 | 0.00 | 0.00 | 0.00 | 88 | 1010.9 |
| 20260831044215 | 71 | 294 | 2.0 | 2.0 | 0.00 | 0.00 | 0.00 | 89 | 1010.9 |
| 20260831043715 | 71 | 258 | 0.0 | 3.0 | 0.00 | 0.00 | 0.00 | 89 | 1010.9 |
| 20260831043216 | 71 | 255 | 0.0 | 3.0 | 0.00 | 0.00 | 0.00 | 89 | 1010.9 |
| 20260831042714 | 71 | 260 | 0.0 | 3.0 | 0.00 | 0.00 | 0.00 | 89 | 1010.9 |
| 20260831042215 | 71 | 280 | 1.0 | 3.0 | 0.00 | 0.00 | 0.00 | 89 | 1010.8 |
| 20260831041727 | 71 | 263 | 2.0 | 3.0 | 0.00 | 0.00 | 0.00 | 89 | 1010.8 |
| 20260831041648 | 71 | 267 | 2.0 | 5.0 | 0.00 | 0.00 | 0.00 | 89 | 1010.7 |
| 20260831040214 | 71 | 261 | 2.0 | 5.0 | 0.00 | 0.00 | 0.00 | 89 | 1010.6 |
| 20260831035715 | 71 | 271 | 3.0 | 3.0 | 0.00 | 0.00 | 0.00 | 89 | 1010.5 |
| 20260831035215 | 71 | 275 | 2.0 | 3.0 | 0.00 | 0.00 | 0.00 | 89 | 1010.5 |
| 20260831034715 | 71 | 265 | 1.0 | 5.0 | 0.00 | 0.00 | 0.00 | 89 | 1010.5 |
| 20260831034432 | 71 | 260 | 0.0 | 5.0 | 0.00 | 0.00 | 0.00 | 89 | 1010.4 |
| 20260831033715 | 71 | 271 | 2.0 | 5.0 | 0.00 | 0.00 | 0.00 | 89 | 1010.4 |
| 20260831033214 | 71 | 278 | 1.0 | 5.0 | 0.00 | 0.00 | 0.00 | 89 | 1010.2 |
| 20260831032713 | 71 | 286 | 3.0 | 3.0 | 0.00 | 0.00 | 0.00 | 89 | 1010.2 |
| 20260831032213 | 72 | 247 | 1.0 | 5.0 | 0.00 | 0.00 | 0.00 | 88 | 1010.1 |
| 20260831031714 | 72 | 266 | 3.0 | 5.0 | 0.00 | 0.00 | 0.00 | 88 | 1010.0 |
| 20260831031214 | 72 | 268 | 1.0 | 5.0 | 0.00 | 0.00 | 0.00 | 88 | 1010.0 |
| 20260831030713 | 72 | 236 | 3.0 | 5.0 | 0.00 | 0.00 | 0.00 | 87 | 1009.9 |
| 20260831030430 | 72 | 262 | 0.0 | 6.0 | 0.00 | 0.00 | 0.00 | 87 | 1009.9 |
| 20260831025937 | 72 | 258 | 0.0 | 6.0 | 0.00 | 0.00 | 0.00 | 87 | 1009.9 |
| 20260831025438 | 72 | 276 | 1.0 | 5.0 | 0.00 | 0.00 | 0.00 | 86 | 1009.8 |
| 20260831024711 | 72 | 283 | 2.0 | 3.0 | 0.00 | 0.00 | 0.00 | 86 | 1009.9 |
| 20260831024212 | 73 | 263 | 2.0 | 5.0 | 0.00 | 0.00 | 0.00 | 85 | 1010.0 |
| 20260831023712 | 73 | 264 | 1.0 | 5.0 | 0.00 | 0.00 | 0.00 | 85 | 1010.0 |
| 20260831023211 | 73 | 264 | 0.0 | 5.0 | 0.00 | 0.00 | 0.00 | 84 | 1009.9 |
| 20260831022712 | 73 | 260 | 1.0 | 3.0 | 0.00 | 0.00 | 0.00 | 84 | 1009.8 |
| 20260831022211 | 74 | 262 | 1.0 | 3.0 | 0.00 | 0.00 | 0.00 | 83 | 1009.8 |
| 20260831021938 | 74 | 269 | 0.0 | 3.0 | 0.00 | 0.00 | 0.00 | 82 | 1009.8 |
| 20260831021212 | 74 | 285 | 0.0 | 5.0 | 0.00 | 0.00 | 0.00 | 81 | 1009.7 |
| 20260831020711 | 74 | 263 | 0.0 | 5.0 | 0.00 | 0.00 | 0.00 | 81 | 1009.7 |
| 20260831020211 | 75 | 304 | 3.0 | 5.0 | 0.00 | 0.00 | 0.00 | 80 | 1009.6 |
| 20260831015932 | 75 | 315 | 2.0 | 6.0 | 0.00 | 0.00 | 0.00 | 80 | 1009.5 |
| 20260831015439 | 75 | 280 | 0.0 | 6.0 | 0.00 | 0.00 | 0.00 | 80 | 1009.6 |
| 20260831014935 | 76 | 263 | 0.0 | 7.0 | 0.00 | 0.00 | 0.00 | 80 | 1009.6 |
| 20260831014208 | 76 | 276 | 2.0 | 7.0 | 0.00 | 0.00 | 0.00 | 80 | 1009.6 |